User: anonymous   Login
Location: Ellerstadt
(49.4644°N, 8.2615°E)
Time: 19:51:02
(UTC+00:00)
Language:

FALCON 9 DEB - Orbit

View from above orbital plane
View from above orbital plane
View from above satellite
View from above satellite

Ground track
Ground track

The orbit data is extracted from the following two-line orbital elements,

1 46084U 20055BK  21136.44121087  .00013119  00000-0  14382-3 0  9990
2 46084  53.0139 355.6697 0013451 138.6280 221.5755 15.63559401 48657
Epoch (UTC): 16 May 2021 10:35:20
Eccentricity: 0.0013451
inclination: 53.0139°
perigee height: 368 km
apogee height: 386 km
right ascension of ascending node: 355.6697°
argument of perigee: 138.6280°
revolutions per day: 15.63559401
mean anomaly at epoch: 221.5755°
orbit number at epoch: 4865

The dashed part of the orbit path shows where the satellite is in the earth's shadow,  

DLR